Portada
METAR-TAF:

METAR-TAF

Aeropuertos :

Shenandoah Municipal Airport

Shenandoah, Iowa, Estados Unidos

latitud: 40-45N, longitud: 095-25W, altitud: 296 m

Observación

El informe se hizo hace 18 minutos, a las 06:55 UTC
Viento 10 kt del sureste
Temperatura 26°C
Humedad 84%
Presión 1011 hPa
Visibilidad: 16.1 km
Cielo despejado

METAR: KSDA 070655Z AUTO 14010KT 10SM CLR 26/23 A2986 RMK AO2

Hora: 02:13 (07:13 UTC)


TAF: falta

Observaciones y pronósticos meteorológicos de más de 4000 aeropuertos (mensajes METAR y TAF).

Los puntos amarillos y rojos representan las estaciones disponibles.

Ponga el ratón en el punto deseado para ver el nombre de la estación.

Haga clic para ver las observaciones y los pronósticos meteorológicos.

Para cambiar el mapa : haga clic en los botones verdes con una cruz de color negro para hacer un zoom, en el botón verde con un guión para alejar o en las flechas verdes para mapas adyacentes.


METAR-TAF: